www.pogodaiklimat.ru

Погода и климат >> Архив погоды >> Россия >> город Севастополь >> Севастополь


АРХИВ ПОГОДЫ в Севастополе

Время (UTC), дата Ветер
(напр.,м/с)
 
Видим.   Явления Облачность Т
(С)
Тd
(С)
f
(%)
Тe
(С)
Тes
(С)
Комфортность P
(гПа)
Po
(гПа)
Тmin
(С)
Tmax
(С)
R
(мм)
R24
(мм)
S
(см)
03 19.04 СВ 4-10
{11}
20 км 9/0
[Ac lent Ci fib]
+5.5 +2.8 83 +2 +2 прохладно 1020.7 1020.0 +5.3 0.9
06 19.04 СВ 6-10
{10}
20 км 9/0
[Ac As]
+7.1 +1.8 69 +3 +3 холодно 1020.7 1020.0 +5.3 0.8
09 19.04 СВ 8-12
{12}
20 км 8/5 600 м
[Cu Sc Ac cast]
+9.6 -1.2 47 +6 +6 прохладно 1020.7 1020.0
12 19.04 С 10-12
{13}
50 км 6/4 600 м
[Cu med, cong Cc]
+10.8 +2.2 55 +7 +7 прохладно 1020.8 1020.3
15 19.04 С 10-13
{13}
50 км 6/4 600 м
[Cb cap Cc]
+9.6 -1.1 47 +5 +5 прохладно 1021.6 1021.1
18 19.04 СВ 8-12
{13}
20 км 8/3 600 м
[Sc diur, vesp Ac cast Ci fib]
+6.7 +0.3 64 +2 +2 холодно 1022.9 1022.4 +11.4
21 19.04 С 10-13
{14}
10 км слаб. ливневой дождь 9/9 300 м
[Cb cap]
+5.7 +2.3 79 -0 -0 холодно 1022.7 1022.2
00 20.04 С 12-15
{16}
4000 м слаб. ливневой дождь 10/10 300 м
[Cb cap]
+5.6 +3.9 89 -1 -1 холодно 1021.3 1020.8
03 20.04 СВ 6-16
{17}
4000 м слаб. ливневой дождь 10/10 300 м
[Cb cap]
+5.0 +3.2 88 -0 -0 холодно 1020.7 1020.0 +4.6 2
06 20.04 СВ 4-15
{16}
10 км в посл. час ливневой дождь 10/6 600 м
[Cu Sc Ac und]
+6.5 +4.3 86 +3 +3 холодно 1020.7 1020.0 +4.6 3
09 20.04 СВ 6-12
{15}
20 км 10/10 600 м
[Cb cap]
+9.4 +2.0 60 +6 +7 прохладно 1020.7 1020.0
12 20.04 СВ 9-13
{14}
20 км 9/6 600 м
[Cu med, cong Ac cast]
+10.7 +4.2 64 +7 +7 прохладно 1020.0 1019.5
15 20.04 СВ 9-12
{14}
20 км 6/0
[Ac cast]
+10.9 +4.0 62 +7 +7 по сезону 1020.4 1019.9 2
18 20.04 СВ 9-12
{13}
20 км 8/4 600 м
[Cu med, cong Ci fib]
+9.1 +4.9 75 +5 +5 прохладно 1021.6 1021.1 +10.9
21 20.04 СВ 3
{12}
20 км 4/0
[Ac lent]
+7.3 +0.1 60 +5 +5 по сезону 1023.4 1022.7
00 21.04 СВ 4
{12}
20 км 3/0
[Ci fib]
+6.3 +4.2 86 +3 +3 прохладно 1020.6 1020.1
03 21.04 В 1 20 км 3/0
[Ac cast]
+4.0 +0.9 80 +3 +3 прохладно 1022.1 1021.3 +4.0
06 21.04 СВ 4 20 км 4/0
[Ci fib]
+10.0 +0.9 53 +8 +11 по сезону 1023.4 1022.7 +3.8
09 21.04 СВ 9
{10}
50 км 8/8 600 м
[Cu med, cong]
+12.4 -1.5 38 +10 +11 по сезону 1022.0 1021.3
12 21.04 СВ 8-10
{11}
50 км 3/3 600 м
[Cu hum]
+14.1 +2.4 45 +12 +13 по сезону 1020.6 1020.1
15 21.04 СВ 9
{10}
50 км ясно +12.9 -3.8 31 +10 +10 по сезону 1022.0 1021.3
18 21.04 СВ 3 20 км 1 балл +9.6 -2.7 42 +8 +8 по сезону 1023.4 1022.7 +13.8
21 21.04 В 1 20 км 8/0
[Ac cast]
+7.0 -1.9 53 +7 +7 по сезону 1023.4 1022.7
00 22.04 СЗ 1 20 км 8/0
[Ac cast]
+6.7 +0.4 64 +6 +6 по сезону 1022.0 1021.3
03 22.04 СВ 5 20 км 3/0
[Ac lent]
+6.5 +2.4 75 +2 +2 холодно 1021.3 1020.8 +6.0
06 22.04 С 3 20 км 6/0
[Ac cast]
+7.8 +2.9 71 +5 +9 прохладно 1023.4 1022.7 +4.8
09 22.04 СВ 10
{10}
20 км 5/5 1000 м
[Cu hum]
+13.4 +0.7 42 +11 +11 по сезону 1023.4 1022.7
12 22.04 СВ 7-10
{11}
50 км 4/4 600 м
[Cu med, cong]
+15.3 +3.3 45 +14 +16 тепло 1021.9 1021.4
15 22.04 Ю 3
{10}
50 км 4/3 600 м
[Cu med, cong Ac cast]
+12.5 +6.1 65 +11 +12 по сезону 1023.2 1022.7
18 22.04 З 1 20 км 4/3 1500 м
[Sc diur, vesp Ac lent]
+9.9 +6.9 82 +9 +9 по сезону 1024.1 1023.6 +15.8
21 22.04 В 1 20 км 8/0
[Ac cast]
+8.4 +4.0 74 +8 +8 по сезону 1026.0 1025.3
00 23.04 В 2 20 км 8/0
[Ac cast]
+6.2 +2.8 79 +4 +4 по сезону 1026.1 1025.3
03 23.04 СВ 3 50 км 10/0
[Ac und]
+8.3 +5.3 81 +6 +6 по сезону 1025.3 1024.8 +6.9
06 23.04 СЗ 2 20 км 6/0
[Ac cast]
+10.9 +5.4 69 +10 +14 по сезону 1027.4 1026.7 +6.2
09 23.04 С 4 20 км 8/6 600 м
[Sc Ac cast]
+13.2 +5.8 61 +12 +13 по сезону 1028.7 1028.0
12 23.04 З 3 20 км 9 баллов +14.0 +4.3 52 +13 +14 по сезону 1028.7 1028.0
15 23.04 Ю 4 20 км 6/4 600 м
[Cu med, cong Ac cast]
+15.5 +5.1 50 +15 +16 тепло 1028.7 1028.0
18 23.04 Ю 4 20 км 8/0
[Ac lent]
+11.1 +9.7 91 +9 +9 по сезону 1028.4 1027.9 +14.7
21 23.04 В 3 20 км ясно +8.4 +3.4 71 +6 +6 по сезону 1030.0 1029.3
00 24.04 В 2 20 км ясно +6.0 +2.1 76 +4 +4 прохладно 1030.1 1029.3
03 24.04 В 1 20 км 4/0
[Ci fib]
+5.2 +2.6 83 +4 +4 прохладно 1030.1 1029.3 +5.0
06 24.04 В 2 20 км {туман} 8/5 600 м
[Sc Ac cast]
+8.6 +4.4 75 +7 +8 по сезону 1030.0 1029.3 +5.0
09 24.04 С 2 20 км 8/3 600 м
[Cu med, cong Ac lent]
+12.1 +5.5 64 +11 +13 по сезону 1031.4 1030.7
12 24.04 СЗ 4 20 км 8/5 600 м
[Cu Sc Ac lent]
+11.2 +8.8 85 +9 +10 прохладно 1031.4 1030.7
15 24.04 З 2 20 км 8/4 600 м
[Cb cap Ac cast Ci fib]
+11.8 +6.5 70 +11 +11 по сезону 1030.0 1029.3
18 24.04 ЮВ 2 20 км 5/3 1000 м
[Sc diur, vesp Ci fib]
+9.6 +8.5 93 +8 +8 по сезону 1029.0 1028.5 +12.5
21 24.04 В 2 4000 м дымка 4/0
[Cs]
+7.2 +5.3 88 +5 +5 прохладно 1030.1 1029.3
00 25.04 С 1 4000 м дымка 6/0
[Cs]
+5.8 +5.4 97 +4 +4 прохладно 1028.3 1027.8
03 25.04 СВ 3 20 км 6/0
[Ci fib]
+6.2 +5.5 95 +3 +3 прохладно 1028.2 1027.7 +5.1
06 25.04 В 2 10 км 5/0
[Ci fib]
+10.2 +5.2 71 +9 +12 по сезону 1030.0 1029.3 +4.4
09 25.04 СЗ 3 4000 м в посл. час туман 6/6 300 м
[St]
+11.6 +8.5 81 +10 +21 опасность
простуды
1030.0 1029.3
12 25.04 Ю 2 20 км {туман} 4/0
[Ac lent]
+12.9 +7.9 72 +12 +21 по сезону 1028.1 1027.6
15 25.04 С 3 20 км 2 балла +12.6 +5.7 63 +11 +13 по сезону 1027.4 1026.7
18 25.04 СВ 2 20 км 4/0
[Ac cast]
+9.7 +8.7 93 +8 +8 по сезону 1026.4 1025.9 +13.7
21 25.04 СВ 1 20 км 2 балла +8.5 +5.2 80 +8 +8 по сезону 1026.0 1025.3
00 26.04 В 3 20 км ясно +6.8 +4.3 84 +4 +4 прохладно 1026.0 1025.3

 

Местоположение метеостанции Севастополь (город Севастополь, Россия): широта 44.62 долгота 33.53 высота над уровнем моря 6 м.

В архиве по умолчанию представлена погода в Севастополе за последнюю неделю. Архивные данные за месяц целиком и за предыдущие месяцы, начиная с января 2011 года, Вы можете получить, выбрав интересующий диапазон дат из раскрывающегося списка и нажав кнопку "Ввод!".


*Определитесь, кто Вы:
робот инопланетянин человек

Внимание! Время в таблицах - всемирное. Для получения местного времени необходимо прибавить поправку, которая равна 3 ч.

Смотрите также архив погоды в соседних городах и на ближайших метеорологических станциях:

Погода в Херсонесском Маяке (город Севастополь, Россия) (13 км)
Погода в Почтовом (Крым, Россия) (41 км)
Погода на Ай-Петри (Крым, Россия) (47 км)
Погода в Ялте (Крым, Россия) (53 км)
Погода в Симферополе (Крым, Россия) (57 км)
Погода в Никитском саду (Крым, Россия) (58 км)
Погода в Симферополе город (Крым, Россия) (59 км)
Погода в Евпатории (Крым, Россия) (64 км)
Погода на Ангарском Перевале (Крым, Россия) (66 км)
Погода в Алуште (Крым, Россия) (69 км)

Пояснения к столбцам:

Ветер - указаны скорость ветра в м/с - средняя за 10 мин, порывы в срок и между сроками (в фигурных скобках) и направление, откуда дует ветер: С - северный, СВ - северо-восточный, В - восточный, ЮВ - юго-восточный, Ю - южный, ЮЗ - юго-западный, З - западный, СЗ - северо-западный.
Видимость - горизонтальная дальность видимости в метрах или километрах. При видимости от 1 до 10 км при отсутствии осадков обычно наблюдается дымка, при ухудшении видимости до 1 км и менее - туман. В сухую погоду видимость может ухудшаться дымом, пылью или мглою.
Явления - указаны атмосферные явления, наблюдавшиеся в срок или в последний час перед сроком; фигурными скобками обозначены явления, наблюдавшиеся между сроками (за 1-3 часа до срока); квадратными скобками обозначены град или гололедные отложения с указанием их диаметра в мм.
Облачность - указаны через наклонную черту общая и нижняя облачность в баллах и высота нижней границы облаков в метрах; квадратными скобками обозначены формы облаков: Ci - перистые, Cs - перисто-слоистые, Cc - перисто-кучевые, Ac - высококучевые, As - высокослоистые, Sc - слоисто-кучевые, Ns - слоисто-дождевые, Cu - кучевые, Cb - кучево-дождевые. Подробнее классификацию облаков см. в Атласе облаков (PDF).
T - Температура воздуха - температура, измеренная на высоте 2 м над землей.
Td - Температура точки росы - температура, при понижении до которой содержащийся в воздухе водяной пар достигнет насыщения.
f - Относительная влажность воздуха - влажноcть воздуха, измеренная на высоте 2 м над землей.
Te - Эффективная температура - температура, которую ощущает одетый по сезону человек в тени. Характеристика душности погоды. При расчете учитывается влияние влажности воздуха и скорости ветра на теплоощущения человека.
Tes - Эффективная температура на солнце - температура, которую ощущает человек, с поправкой на солнечный нагрев. Характеристика знойности погоды. Зависит от высоты солнца над горизонтом, облачности и скорости ветра. Ночью, в пасмурную погоду, а также при ветре 12 м/с и более поправка равна нулю.
P - Атмосферное давление - приведенное к уровню моря атмосферное давление.
Po - Атмосферное давление - измеренное на уровне метеостанции атмосферное давление.
Tmin - Минимальная температура - минимум температуры воздуха на высоте 2 м над землей.
Tmax - Максимальная температура - максимум температуры воздуха на высоте 2 м над землей.
R - Количество осадков - Количество выпавших осадков за период времени, мм. При наведении курсора мыши на число - период времени, за который выпало указанное количество осадков.
R24 - Количество осадков - Количество выпавших осадков за 24 часа, мм.
S - Снежный покров - Высота снежного покрова, см. При наведении курсора мыши на число - состояние снежного покрова и степень покрытия местности в баллах.